Zurück zum Katalog

SLS R/B

AktivHEO
NORAD 54258·ROCKET BODY·🇺🇸 United States

Gestartet Nov 16, 2022 von Cape Canaveral Space Force Station

Loading…

Nächste Überflüge (nächste 24 Stunden)

TLE

VeraltetSource: Space-Track

Epoche: Nov 16, 2022, 09:07 UTC

1 54258U 22156B   22320.38000000 -.00015394  00000-0  00000-0 0  9993
2 54258  30.5010  10.5910 9639665  20.8820   1.0790  0.10372534    41

Verfolge SLS R/B in Echtzeit mit AllMySat

Download on the App Store